STARLINK-38071

Last updated on Sun Aug 09 2026 00:02:04 GMT+0000 (Coordinated Universal Time)

1 69992U 26159T 26220.54546933 .00135016 00000+0 89110-3 0 9996 2 69992 97.2831 60.5264 0001612 51.2652 308.8757 15.75208799 5704
UTC large
Height (km)
Speed (km/s)
/
Latitude / Longitude
Inclination (degrees)
Orbital Period (minutes)
Azimuth
Elevation
Range (km)
Doppler Factor

Next 0 passes for location: London (51.5072 / 0.1276)

No passes found over London.
STARLINK-38071